Погода в Вешаловке

Россия / Липецкая область     52°45′22″N   39°17′06″E
темп.,
°C
ветер,
м/с
пор.,
м/с
влажн.,
%
обл.,
%
осадки,
мм/ч
давл.,
гПа
погр.,
м
7 мая, пт
пт700:00+10сз4693100 0.9 1010369
03:00+7сз5794100 4.9 1011458
06:00+7с3790100 6.2 1011443
09:00+8зсз1282100 6.3 1013651
12:00+12сз34565 0.2 10141546
15:00+14зсз34404 0.2 10142185
18:00+14зюз225151 0.0 10141482
21:00+10ююв225723 0.0 101512
8 мая, сб
сб800:00+8ююв49665 0.0 1015155
03:00+8ююв61478100 0.0 1015354
06:00+8ююв71677100 0.0 1013483
09:00+11ююв81674100 0.1 1011832
12:00+13ю91572100 0.1 10081037
15:00+12ю71489100 2.6 1007896
18:00+12ю81495100 2.1 1006886
21:00+11юз61193100 2.4 1006554
9 мая, вс
вс900:00+8зюз61091100 0.0 1007505
03:00+6юз81180100 0.0 1008844
06:00+5зюз61090100 0.0 1009844
09:00+5зсз7991100 0.0 1011737
12:00+4сз71195100 0.1 1013757
15:00+5сз71292100 0.1 1016933
18:00+7с6138295 0.1 10181301
21:00+5ссз4118397 0.1 1020352
10 мая, пн
пн1000:00+5ссз514835 0.0 1021483
03:00+5с61682100 0.0 1023638
06:00+5с81779100 0.0 1024770
09:00+9ссв10166936 0.0 1023993
12:00+11ссв101364100 0.0 10241189
15:00+12ссв8147195 0.0 1023943
18:00+13св7137396 0.0 1024880
21:00+11ссв81781100 0.0 1024605
11 мая, вт
вт1100:00+9св81687100 0.0 1024471
03:00+8ссв7159139 0.0 1024402
06:00+8св8179071 0.0 1024449
09:00+13всв91478100 0.0 1024632
12:00+18всв796798 0.0 10241123
15:00+15юв478682 0.8 1025415
18:00+14в24866 0.9 1025283
21:00+12ссв11935 0.9 102511